GW3504 Weather Reports


Display with metric or nautical units.
time (UTC)temp
F
wind
direction
speed
MPH
gust
MPH
rain 1hr
in
rain 24hr
in
rain mn
in
humidity
%
barometer
mb
20260904213525 96 195 3.0 12.0 0.00 0.00 0.00 43 1013.0
20260904213043 96 144 4.0 15.0 0.00 0.00 0.00 43 1013.0
20260904212523 96 172 5.0 15.0 0.00 0.00 0.00 42 1013.0
20260904212028 96 156 5.0 15.0 0.00 0.00 0.00 42 1013.1
20260904211547 97 169 4.0 14.0 0.00 0.00 0.00 42 1013.1
20260904211024 98 287 1.0 12.0 0.00 0.00 0.00 42 1013.2
20260904210525 97 74 1.0 13.0 0.00 0.00 0.00 43 1013.1
20260904210046 97 180 5.0 13.0 0.00 0.00 0.00 43 1013.3
20260904205525 97 185 3.0 11.0 0.00 0.00 0.00 43 1013.3
20260904205025 97 177 4.0 11.0 0.00 0.00 0.00 43 1013.3
20260904204542 97 141 3.0 10.0 0.00 0.00 0.00 42 1013.3
20260904204023 96 65 5.0 14.0 0.00 0.00 0.00 44 1013.3
20260904203523 97 169 2.0 15.0 0.00 0.00 0.00 45 1013.4
20260904203050 96 181 5.0 15.0 0.00 0.00 0.00 43 1013.5
20260904202523 96 100 2.0 10.0 0.00 0.00 0.00 44 1013.4
20260904202022 97 175 3.0 9.0 0.00 0.00 0.00 43 1013.6
20260904201547 97 0 3.0 8.0 0.00 0.00 0.00 45 1013.5
20260904201021 97 166 1.0 15.0 0.00 0.00 0.00 44 1013.6
20260904200524 96 144 3.0 15.0 0.00 0.00 0.00 45 1013.6
20260904200051 96 0 2.0 10.0 0.00 0.00 0.00 44 1013.6
20260904195525 96 94 3.0 11.0 0.00 0.00 0.00 45 1013.7
20260904195026 96 134 4.0 11.0 0.00 0.00 0.00 43 1013.8
20260904194543 96 168 2.0 11.0 0.00 0.00 0.00 45 1013.7
20260904194025 96 180 2.0 11.0 0.00 0.00 0.00 44 1013.8
20260904193523 96 124 3.0 11.0 0.00 0.00 0.00 45 1013.9
20260904193049 96 174 1.0 13.0 0.00 0.00 0.00 46 1013.9
20260904192524 95 164 5.0 13.0 0.00 0.00 0.00 46 1013.9
20260904192023 95 0 1.0 12.0 0.00 0.00 0.00 47 1013.9
20260904191545 95 215 4.0 12.0 0.00 0.00 0.00 47 1014.0
20260904191024 94 0 3.0 12.0 0.00 0.00 0.00 47 1014.0
20260904190522 95 138 3.0 11.0 0.00 0.00 0.00 46 1014.1
20260904190041 96 229 1.0 11.0 0.00 0.00 0.00 46 1014.1
20260904185524 95 0 1.0 10.0 0.00 0.00 0.00 46 1014.1
20260904185026 95 261 2.0 10.0 0.00 0.00 0.00 46 1014.1
20260904184558 95 181 2.0 9.0 0.00 0.00 0.00 46 1014.2
20260904184028 95 242 2.0 9.0 0.00 0.00 0.00 46 1014.1
20260904183523 94 290 1.0 10.0 0.00 0.00 0.00 46 1014.2
20260904183049 94 90 2.0 15.0 0.00 0.00 0.00 47 1014.3
20260904182524 94 333 4.0 15.0 0.00 0.00 0.00 47 1014.2
20260904182028 94 0 3.0 13.0 0.00 0.00 0.00 47 1014.2
20260904181545 94 172 3.0 14.0 0.00 0.00 0.00 48 1014.3
20260904181027 94 152 5.0 14.0 0.00 0.00 0.00 46 1014.2
20260904180526 94 261 1.0 12.0 0.00 0.00 0.00 46 1014.3
20260904180056 94 165 2.0 8.0 0.00 0.00 0.00 46 1014.3
20260904175521 94 0 2.0 16.0 0.00 0.00 0.00 47 1014.5
20260904175023 93 220 3.0 16.0 0.00 0.00 0.00 49 1014.6
20260904174542 93 180 4.0 12.0 0.00 0.00 0.00 47 1014.5
20260904174025 93 153 3.0 12.0 0.00 0.00 0.00 50 1014.7
20260904173524 93 213 4.0 14.0 0.00 0.00 0.00 49 1014.9
20260904173051 92 202 5.0 14.0 0.00 0.00 0.00 50 1014.9
20260904172523 92 203 2.0 12.0 0.00 0.00 0.00 49 1014.9
20260904172025 92 154 1.0 11.0 0.00 0.00 0.00 51 1014.9
20260904171549 91 256 5.0 14.0 0.00 0.00 0.00 50 1015.1
20260904171024 91 0 4.0 15.0 0.00 0.00 0.00 51 1015.2
20260904170524 91 173 5.0 15.0 0.00 0.00 0.00 51 1015.2
20260904170042 91 149 6.0 14.0 0.00 0.00 0.00 51 1015.2
20260904165524 91 147 3.0 14.0 0.00 0.00 0.00 51 1015.2
20260904165025 91 171 4.0 14.0 0.00 0.00 0.00 51 1015.2
20260904164542 91 191 3.0 14.0 0.00 0.00 0.00 51 1015.1
20260904164023 91 153 3.0 13.0 0.00 0.00 0.00 52 1015.1
20260904163523 90 0 4.0 14.0 0.00 0.00 0.00 53 1015.1
20260904163054 90 180 4.0 15.0 0.00 0.00 0.00 53 1015.2
20260904162527 90 250 3.0 15.0 0.00 0.00 0.00 53 1015.1
20260904162023 91 161 2.0 15.0 0.00 0.00 0.00 53 1015.1
20260904161545 90 0 2.0 12.0 0.00 0.00 0.00 55 1015.0
20260904161024 89 181 3.0 12.0 0.00 0.00 0.00 56 1015.1
20260904160525 88 147 3.0 12.0 0.00 0.00 0.00 57 1015.1
20260904160043 88 211 3.0 11.0 0.00 0.00 0.00 58 1015.2
20260904155525 88 148 1.0 9.0 0.00 0.00 0.00 60 1015.2
20260904155024 88 167 2.0 10.0 0.00 0.00 0.00 59 1015.2
20260904154544 88 0 2.0 10.0 0.00 0.00 0.00 60 1015.2
20260904154025 87 174 3.0 9.0 0.00 0.00 0.00 61 1015.3
20260904153523 87 175 2.0 10.0 0.00 0.00 0.00 61 1015.3
20260904153057 87 0 1.0 11.0 0.00 0.00 0.00 62 1015.3
20260904152525 86 220 3.0 12.0 0.00 0.00 0.00 63 1015.3
20260904152024 86 302 1.0 12.0 0.00 0.00 0.00 63 1015.3
20260904151542 86 333 2.0 14.0 0.00 0.00 0.00 62 1015.3
20260904151028 85 0 3.0 14.0 0.00 0.00 0.00 63 1015.3
20260904150525 85 198 4.0 14.0 0.00 0.00 0.00 63 1015.3
20260904150046 85 190 2.0 12.0 0.00 0.00 0.00 64 1015.3
20260904145523 85 0 2.0 9.0 0.00 0.00 0.00 64 1015.2
20260904145023 85 167 1.0 9.0 0.00 0.00 0.00 66 1015.1
20260904144545 84 0 1.0 12.0 0.00 0.00 0.00 67 1015.1
20260904144023 83 155 3.0 12.0 0.00 0.00 0.00 69 1015.1
20260904143523 83 135 3.0 11.0 0.00 0.00 0.00 69 1015.1
20260904143044 83 136 2.0 10.0 0.00 0.00 0.00 70 1015.2
20260904142525 82 132 2.0 12.0 0.00 0.00 0.00 71 1015.3
20260904142024 81 328 2.0 12.0 0.00 0.00 0.00 72 1015.2
20260904141604 81 168 4.0 11.0 0.00 0.00 0.00 73 1015.2
20260904141026 80 0 2.0 10.0 0.00 0.00 0.00 74 1015.2
20260904140525 80 192 2.0 9.0 0.00 0.00 0.00 74 1015.3
20260904140048 79 166 0.0 8.0 0.00 0.00 0.00 75 1015.3
20260904135524 79 184 1.0 9.0 0.00 0.00 0.00 76 1015.3
20260904135024 79 192 1.0 9.0 0.00 0.00 0.00 75 1015.3
20260904134548 79 0 1.0 6.0 0.00 0.00 0.00 77 1015.4
20260904134021 78 0 1.0 7.0 0.00 0.00 0.00 78 1015.4
20260904133523 77 163 3.0 7.0 0.00 0.00 0.00 78 1015.4
20260904133047 77 165 2.0 6.0 0.00 0.00 0.00 78 1015.3
20260904132526 77 153 2.0 6.0 0.00 0.00 0.00 78 1015.3
20260904132023 77 173 1.0 5.0 0.00 0.00 0.00 79 1015.3
20260904131603 77 0 0.0 4.0 0.00 0.00 0.00 80 1015.2
20260904131024 76 163 0.0 6.0 0.00 0.00 0.00 81 1015.1
20260904130525 76 0 1.0 6.0 0.00 0.00 0.00 81 1015.1
20260904130051 75 0 2.0 7.0 0.00 0.00 0.00 81 1015.0
20260904125523 75 0 0.0 7.0 0.00 0.00 0.00 81 1014.9
20260904125024 75 162 0.0 6.0 0.00 0.00 0.00 82 1014.8
20260904124548 75 0 1.0 6.0 0.00 0.00 0.00 81 1014.8
20260904124021 75 0 0.0 6.0 0.00 0.00 0.00 82 1014.7
20260904123528 75 171 1.0 6.0 0.00 0.00 0.00 82 1014.7
20260904123103 75 160 1.0 6.0 0.00 0.00 0.00 82 1014.6
20260904122524 75 163 1.0 6.0 0.00 0.00 0.00 82 1014.6
20260904122025 75 167 1.0 6.0 0.00 0.00 0.00 81 1014.6
20260904121541 75 166 1.0 6.0 0.00 0.00 0.00 81 1014.5
20260904121026 75 184 1.0 5.0 0.00 0.00 0.00 81 1014.4
20260904120524 75 165 0.0 3.0 0.00 0.00 0.00 81 1014.3
20260904120047 75 0 0.0 4.0 0.00 0.00 0.00 81 1014.1
20260904115523 75 0 0.0 6.0 0.00 0.00 0.00 81 1014.0
20260904115025 75 0 0.0 6.0 0.00 0.00 0.00 81 1014.1
20260904114546 75 173 1.0 6.0 0.00 0.00 0.00 81 1014.0
20260904114025 75 0 1.0 6.0 0.00 0.00 0.00 81 1014.0
20260904113524 75 0 1.0 5.0 0.00 0.00 0.00 81 1014.0
20260904113049 75 0 0.0 5.0 0.00 0.00 0.00 81 1013.9
20260904112524 76 0 1.0 5.0 0.00 0.00 0.00 80 1013.8
20260904112024 76 159 0.0 6.0 0.00 0.00 0.00 80 1013.8
20260904111552 76 0 1.0 6.0 0.00 0.00 0.00 80 1013.8
20260904111025 76 153 0.0 5.0 0.00 0.00 0.00 80 1013.9
20260904110524 76 173 0.0 5.0 0.00 0.00 0.00 80 1013.9
20260904110049 76 149 1.0 5.0 0.00 0.00 0.00 80 1013.8
20260904105523 76 0 0.0 5.0 0.00 0.00 0.00 79 1013.8
20260904105023 76 0 1.0 5.0 0.00 0.00 0.00 79 1013.8
20260904104542 76 182 0.0 4.0 0.00 0.00 0.00 79 1013.8
20260904104025 77 0 1.0 4.0 0.00 0.00 0.00 78 1013.8
20260904103529 77 173 0.0 6.0 0.00 0.00 0.00 78 1013.8
20260904103044 77 0 1.0 6.0 0.00 0.00 0.00 78 1013.7
20260904102524 77 0 1.0 8.0 0.00 0.00 0.00 78 1013.7
20260904102024 77 0 1.0 8.0 0.00 0.00 0.00 78 1013.7
20260904101559 77 162 2.0 7.0 0.00 0.00 0.00 78 1013.7
20260904101023 77 161 2.0 7.0 0.00 0.00 0.00 77 1013.5
20260904100523 77 173 2.0 5.0 0.00 0.00 0.00 77 1013.5
20260904100045 77 166 1.0 5.0 0.00 0.00 0.00 77 1013.4
20260904095530 77 169 1.0 6.0 0.00 0.00 0.00 77 1013.5
20260904095024 78 206 1.0 6.0 0.00 0.00 0.00 76 1013.4
20260904094546 78 0 2.0 6.0 0.00 0.00 0.00 76 1013.4
20260904094024 78 150 1.0 6.0 0.00 0.00 0.00 76 1013.3
20260904093524 78 165 2.0 6.0 0.00 0.00 0.00 76 1013.2
20260904093041 78 173 2.0 6.0 0.00 0.00 0.00 76 1013.1
20260904092528 78 194 0.0 5.0 0.00 0.00 0.00 77 1013.1
20260904092025 77 175 0.0 7.0 0.00 0.00 0.00 77 1013.1
20260904091549 77 0 1.0 7.0 0.00 0.00 0.00 77 1012.9
20260904091027 77 184 0.0 4.0 0.00 0.00 0.00 77 1012.9
20260904090526 78 0 0.0 4.0 0.00 0.00 0.00 76 1012.9
20260904090047 78 0 0.0 4.0 0.00 0.00 0.00 76 1012.9
20260904085527 78 0 0.0 5.0 0.00 0.00 0.00 75 1012.8
20260904085023 78 0 0.0 5.0 0.00 0.00 0.00 75 1012.9
20260904084545 78 0 0.0 5.0 0.00 0.00 0.00 75 1012.8
20260904084025 79 0 0.0 5.0 0.00 0.00 0.00 74 1012.8
20260904083524 79 0 0.0 4.0 0.00 0.00 0.00 74 1012.9
20260904083055 79 0 0.0 4.0 0.00 0.00 0.00 74 1012.8
20260904082527 79 169 0.0 4.0 0.00 0.00 0.00 74 1012.9
20260904082027 79 0 0.0 3.0 0.00 0.00 0.00 74 1012.8
20260904081545 79 0 0.0 7.0 0.00 0.00 0.00 74 1012.8
20260904081024 79 0 0.0 7.0 0.00 0.00 0.00 74 1012.8
20260904080524 79 0 1.0 6.0 0.00 0.00 0.00 74 1012.9
20260904080044 79 0 0.0 5.0 0.00 0.00 0.00 74 1012.8
20260904075524 79 0 0.0 5.0 0.00 0.00 0.00 74 1012.9
20260904075025 79 179 0.0 5.0 0.00 0.00 0.00 74 1012.8
20260904074553 79 0 0.0 5.0 0.00 0.00 0.00 74 1012.9
20260904074024 79 173 0.0 5.0 0.00 0.00 0.00 73 1012.9
20260904073524 79 198 0.0 5.0 0.00 0.00 0.00 73 1012.9
20260904073050 79 0 0.0 4.0 0.00 0.00 0.00 73 1012.9
20260904072527 79 0 0.0 3.0 0.00 0.00 0.00 73 1012.9
20260904072023 79 0 0.0 3.0 0.00 0.00 0.00 73 1012.8
20260904071546 79 0 0.0 2.0 0.00 0.00 0.00 73 1012.9
20260904071024 79 0 0.0 2.0 0.00 0.00 0.00 72 1012.8
20260904070530 80 0 0.0 2.0 0.00 0.00 0.00 72 1012.9
20260904070044 80 0 0.0 2.0 0.00 0.00 0.00 72 1012.9
20260904065525 80 0 0.0 2.0 0.00 0.00 0.00 72 1013.0
20260904065024 80 0 0.0 2.0 0.00 0.00 0.00 71 1013.0
20260904064540 80 0 0.0 2.0 0.00 0.00 0.00 71 1013.1
20260904064027 80 0 0.0 2.0 0.00 0.00 0.00 70 1013.0
20260904063523 80 263 0.0 1.0 0.00 0.00 0.00 70 1013.0
20260904063105 81 0 0.0 2.0 0.00 0.00 0.00 70 1013.1
20260904062525 81 0 0.0 2.0 0.00 0.00 0.00 69 1013.0
20260904062026 81 0 0.0 3.0 0.00 0.00 0.00 69 1013.1
20260904061545 81 0 0.0 3.0 0.00 0.00 0.00 69 1013.1
20260904061028 81 0 0.0 0.0 0.00 0.00 0.00 68 1013.1
20260904060525 81 0 0.0 2.0 0.00 0.00 0.00 68 1013.0
20260904060106 81 0 0.0 2.0 0.00 0.00 0.00 67 1012.9
20260904055525 82 0 0.0 4.0 0.00 0.00 0.00 67 1012.9
20260904055025 82 0 0.0 4.0 0.00 0.00 0.00 66 1012.9
20260904054542 82 0 0.0 1.0 0.00 0.00 0.00 66 1012.8
20260904054027 82 0 0.0 1.0 0.00 0.00 0.00 65 1012.8
20260904053523 82 0 0.0 1.0 0.00 0.00 0.00 65 1012.8
20260904053046 82 0 0.0 1.0 0.00 0.00 0.00 64 1012.8
20260904052524 83 0 0.0 4.0 0.00 0.00 0.00 64 1012.8
20260904052028 83 125 0.0 4.0 0.00 0.00 0.00 64 1012.8
20260904051548 83 0 0.0 2.0 0.00 0.00 0.00 63 1012.7
20260904051021 83 0 0.0 5.0 0.00 0.00 0.00 63 1012.7
20260904050523 83 236 0.0 5.0 0.00 0.00 0.00 63 1012.6
20260904050044 83 169 0.0 5.0 0.00 0.00 0.00 63 1012.7
20260904045526 83 0 0.0 6.0 0.00 0.00 0.00 62 1012.7
20260904045024 83 167 1.0 7.0 0.00 0.00 0.00 62 1012.7
20260904044549 83 170 2.0 7.0 0.00 0.00 0.00 62 1012.7
20260904044025 84 169 1.0 7.0 0.00 0.00 0.00 62 1012.7
20260904043523 84 176 1.0 7.0 0.00 0.00 0.00 61 1012.7
20260904043047 84 0 1.0 6.0 0.00 0.00 0.00 61 1012.6
20260904042524 84 0 1.0 5.0 0.00 0.00 0.00 62 1012.6
20260904042024 84 167 1.0 5.0 0.00 0.00 0.00 62 1012.4
20260904041545 84 175 0.0 5.0 0.00 0.00 0.00 62 1012.5
20260904041028 84 143 0.0 5.0 0.00 0.00 0.00 62 1012.4
20260904040523 84 0 0.0 5.0 0.00 0.00 0.00 62 1012.4
20260904040046 84 0 0.0 5.0 0.00 0.00 0.00 62 1012.5
20260904035524 84 0 1.0 5.0 0.00 0.00 0.00 61 1012.5
20260904035025 84 0 0.0 3.0 0.00 0.00 0.00 61 1012.5
20260904034557 85 0 0.0 3.0 0.00 0.00 0.00 61 1012.5
20260904034024 85 0 0.0 3.0 0.00 0.00 0.00 60 1012.5
20260904033524 85 0 0.0 4.0 0.00 0.00 0.00 60 1012.5
20260904033041 85 0 0.0 6.0 0.00 0.00 0.00 59 1012.4
20260904032525 85 0 0.0 6.0 0.00 0.00 0.00 59 1012.4
20260904032023 85 163 1.0 6.0 0.00 0.00 0.00 59 1012.4
20260904031547 85 0 1.0 5.0 0.00 0.00 0.00 59 1012.5
20260904031024 86 0 0.0 4.0 0.00 0.00 0.00 59 1012.4
20260904030526 86 0 0.0 4.0 0.00 0.00 0.00 59 1012.4
20260904030042 86 0 0.0 4.0 0.00 0.00 0.00 59 1012.4
20260904025524 86 0 0.0 4.0 0.00 0.00 0.00 59 1012.3
20260904025024 86 0 0.0 2.0 0.00 0.00 0.00 59 1012.3
20260904024542 86 0 0.0 1.0 0.00 0.00 0.00 59 1012.2
20260904024025 86 0 0.0 2.0 0.00 0.00 0.00 58 1012.2
20260904023529 87 0 0.0 2.0 0.00 0.00 0.00 58 1012.1
20260904023053 87 0 0.0 5.0 0.00 0.00 0.00 57 1012.1
20260904022524 87 173 0.0 5.0 0.00 0.00 0.00 57 1012.0
20260904022023 87 0 0.0 5.0 0.00 0.00 0.00 57 1012.0
20260904021549 87 0 0.0 5.0 0.00 0.00 0.00 56 1011.9
20260904021024 88 0 0.0 5.0 0.00 0.00 0.00 56 1011.9
20260904020524 88 0 0.0 1.0 0.00 0.00 0.00 55 1011.8
20260904020044 88 0 0.0 2.0 0.00 0.00 0.00 55 1011.8
20260904015524 88 0 0.0 2.0 0.00 0.00 0.00 54 1011.8
20260904015026 88 0 0.0 4.0 0.00 0.00 0.00 54 1011.7
20260904014549 89 0 0.0 4.0 0.00 0.00 0.00 53 1011.6
20260904014027 89 160 0.0 2.0 0.00 0.00 0.00 53 1011.5
20260904013523 89 0 0.0 5.0 0.00 0.00 0.00 53 1011.5
20260904013042 89 0 0.0 5.0 0.00 0.00 0.00 52 1011.3
20260904012530 89 0 0.0 4.0 0.00 0.00 0.00 52 1011.3
20260904012027 89 0 1.0 4.0 0.00 0.00 0.00 52 1011.2
20260904011548 90 0 0.0 4.0 0.00 0.00 0.00 52 1011.1
20260904011028 90 0 0.0 4.0 0.00 0.00 0.00 52 1011.1
20260904010527 90 0 0.0 1.0 0.00 0.00 0.00 52 1011.1
20260904010053 90 0 0.0 3.0 0.00 0.00 0.00 51 1010.9
20260904005523 91 0 0.0 3.0 0.00 0.00 0.00 50 1011.0
20260904005024 91 0 0.0 6.0 0.00 0.00 0.00 50 1011.0
20260904004559 91 0 0.0 6.0 0.00 0.00 0.00 49 1011.0
20260904004026 92 156 0.0 6.0 0.00 0.00 0.00 49 1010.9
20260904003531 92 0 0.0 3.0 0.00 0.00 0.00 49 1010.9
20260904003045 92 0 1.0 6.0 0.00 0.00 0.00 48 1010.9
20260904002526 93 176 0.0 6.0 0.00 0.00 0.00 47 1010.9
20260904002024 93 183 1.0 6.0 0.00 0.00 0.00 47 1011.0
20260904001541 93 0 1.0 6.0 0.00 0.00 0.00 46 1011.0
20260904001029 93 0 2.0 7.0 0.00 0.00 0.00 46 1011.0
20260904000526 94 153 2.0 7.0 0.00 0.00 0.00 45 1011.0
20260904000103 94 211 2.0 7.0 0.00 0.00 0.00 45 1010.9
20260903235525 94 178 1.0 7.0 0.00 0.00 0.00 44 1010.9
20260903235024 94 184 2.0 9.0 0.00 0.00 0.00 44 1011.0
20260903234549 95 180 2.0 10.0 0.00 0.00 0.00 44 1010.9
20260903234023 95 148 2.0 10.0 0.00 0.00 0.00 43 1010.8
20260903233527 95 174 2.0 10.0 0.00 0.00 0.00 43 1010.8
20260903233047 95 0 3.0 11.0 0.00 0.00 0.00 43 1010.9
20260903232521 95 163 4.0 11.0 0.00 0.00 0.00 43 1010.8
20260903232025 95 0 0.0 9.0 0.00 0.00 0.00 43 1010.9
20260903231545 95 159 3.0 11.0 0.00 0.00 0.00 42 1010.9
20260903231024 96 242 2.0 11.0 0.00 0.00 0.00 42 1010.9
20260903230524 96 143 3.0 11.0 0.00 0.00 0.00 41 1010.8
20260903230046 96 176 2.0 11.0 0.00 0.00 0.00 41 1010.8
20260903225528 96 186 3.0 13.0 0.00 0.00 0.00 41 1010.8
20260903225025 96 0 3.0 13.0 0.00 0.00 0.00 41 1010.8
20260903224551 96 258 4.0 14.0 0.00 0.00 0.00 41 1010.7
20260903224029 96 159 5.0 14.0 0.00 0.00 0.00 41 1010.8
20260903223524 96 188 3.0 14.0 0.00 0.00 0.00 42 1010.8
20260903223045 96 184 5.0 14.0 0.00 0.00 0.00 41 1010.8
20260903222525 96 182 3.0 16.0 0.00 0.00 0.00 42 1010.8
20260903222029 96 109 5.0 17.0 0.00 0.00 0.00 42 1010.9
20260903221543 97 0 2.0 19.0 0.00 0.00 0.00 42 1010.9
20260903221024 97 238 3.0 19.0 0.00 0.00 0.00 42 1010.9
20260903220524 97 132 4.0 16.0 0.00 0.00 0.00 42 1010.9
20260903220105 96 219 5.0 16.0 0.00 0.00 0.00 43 1010.9
20260903215528 97 85 6.0 17.0 0.00 0.00 0.00 42 1011.0
20260903215024 97 190 6.0 18.0 0.00 0.00 0.00 43 1011.0
20260903214543 97 135 3.0 18.0 0.00 0.00 0.00 42 1011.0
20260903214022 97 96 5.0 12.0 0.00 0.00 0.00 43 1011.1